Weather History for KALW - March, 2013

Change the Weather History Date:

Sunday, March 3, 2013

  Actual Average Record
Temperature  
Mean Temperature 42 °F -  
Max Temperature 50 °F 48 °F 67 °F (1987)
Min Temperature 33 °F 34 °F 13 °F (1989)
Degree Days  
Heating Degree Days 22    
Moisture  
Dew Point 28 °F    
Average Humidity 59    
Maximum Humidity 83    
Minimum Humidity 31    
Precipitation  
Precipitation 0.00 in - - ()
Sea Level Pressure  
Sea Level Pressure 30.15 in    
Wind  
Wind Speed 10 mph (SW)    
Max Wind Speed 18 mph    
Max Gust Speed 18 mph    
Visibility 10 miles    
Events Rain    
Averages and records for this station are not official NWS values.
T = Trace of Precipitation, MM = Missing Value Source: NWS Daily Summary

Daily Weather History Graph

Daily Weather History Graph

Search for Another Location

Airport or City:

Trip Planner

Search our weather history database for the weather conditions in past years. The results will help you decide how hot, cold, wet, or windy it might be!

Date:

Astronomy

Mar. 03, 2013 Rise Set
Actual Time 6:27 AM PST 5:42 PM PST
Civil Twilight 5:57 AM PST 6:12 PM PST
Nautical Twilight 5:23 AM PST 6:47 PM PST
Astronomical Twilight 4:48 AM PST 7:22 PM PST
Moon No Moon Rise 9:25 AM PST (3/3)
Length of Visible Light 12h 15m
Length of Day
11h 15m
Waning Gibbous, 62% of the Moon is Illuminated
Mar 3
Waning Gibbous
Mar 4
Last Quarter
Mar 11
New
Mar 19
First Quarter
Mar 27
Full

Hourly Weather History & Observations

Time (PST) Temp. Windchill Dew Point Humidity Pressure Visibility Wind Dir Wind Speed Gust Speed Precip Events Conditions
12:50 AM 48.2 °F - 41.0 °F 76% 30.04 in 10.0 mi WSW 8.1 mph - 0.00 in Rain Light Rain
12:53 AM 46.9 °F - 41.0 °F 80% 30.05 in 10.0 mi WSW 9.2 mph - 0.00 in Rain Light Rain
1:53 AM 46.0 °F 41.4 °F 41.0 °F 83% 30.07 in 10.0 mi West 9.2 mph - 0.00 in   Overcast
2:31 AM 44.6 °F 39.7 °F 33.8 °F 66% 30.09 in 10.0 mi WSW 9.2 mph - 0.00 in Rain Light Rain
2:53 AM 44.1 °F 36.2 °F 36.0 °F 73% 30.11 in 10.0 mi WSW 18.4 mph - 0.00 in   Overcast
3:16 AM 42.8 °F 35.4 °F 35.6 °F 76% 30.11 in 10.0 mi WSW 15.0 mph - N/A   Overcast
3:53 AM 41.0 °F 33.5 °F 33.1 °F 73% 30.13 in 10.0 mi WSW 13.8 mph - N/A   Scattered Clouds
4:53 AM 39.0 °F 30.6 °F 32.0 °F 76% 30.15 in 10.0 mi SW 15.0 mph - N/A   Clear
5:53 AM 36.0 °F 30.3 °F 30.0 °F 79% 30.17 in 10.0 mi SSW 6.9 mph - N/A   Clear
6:53 AM 35.1 °F 27.4 °F 28.9 °F 78% 30.17 in 10.0 mi South 10.4 mph - N/A   Clear
7:53 AM 37.0 °F 29.3 °F 28.0 °F 70% 30.19 in 10.0 mi South 11.5 mph - N/A   Clear
8:53 AM 39.9 °F 32.1 °F 27.0 °F 60% 30.20 in 10.0 mi SSW 13.8 mph - N/A   Clear
9:53 AM 42.1 °F 35.2 °F 26.1 °F 53% 30.19 in 10.0 mi South 12.7 mph - N/A   Clear
10:53 AM 45.0 °F 39.7 °F 26.1 °F 48% 30.18 in 10.0 mi WSW 10.4 mph 18.4 mph N/A   Clear
11:53 AM 46.0 °F 42.5 °F 24.1 °F 42% 30.17 in 10.0 mi SW 6.9 mph - N/A   Partly Cloudy
12:53 PM 46.0 °F 43.1 °F 21.9 °F 39% 30.15 in 10.0 mi West 5.8 mph - N/A   Scattered Clouds
1:53 PM 50.0 °F - 24.1 °F 36% 30.14 in 10.0 mi WSW 15.0 mph - N/A   Scattered Clouds
2:53 PM 48.9 °F - 19.0 °F 31% 30.14 in 10.0 mi WSW 11.5 mph - N/A   Mostly Cloudy
3:53 PM 48.0 °F - 19.9 °F 33% 30.14 in 10.0 mi West 5.8 mph - N/A   Overcast
4:53 PM 46.0 °F 43.9 °F 21.9 °F 39% 30.14 in 10.0 mi SW 4.6 mph - N/A   Partly Cloudy
5:53 PM 46.0 °F - 21.0 °F 37% 30.15 in 10.0 mi Calm Calm - N/A   Mostly Cloudy
6:53 PM 41.0 °F 38.0 °F 24.1 °F 51% 30.17 in 10.0 mi NE 4.6 mph - N/A   Overcast
7:53 PM 37.9 °F - 23.0 °F 55% 30.20 in 10.0 mi Calm Calm - N/A   Clear
8:53 PM 37.9 °F 34.4 °F 23.0 °F 55% 30.21 in 10.0 mi South 4.6 mph - N/A   Clear
9:53 PM 35.1 °F 27.4 °F 23.0 °F 61% 30.22 in 10.0 mi South 10.4 mph - N/A   Clear
10:53 PM 35.1 °F 28.6 °F 23.0 °F 61% 30.24 in 10.0 mi South 8.1 mph - N/A   Clear
11:53 PM 33.1 °F 25.5 °F 24.1 °F 70% 30.25 in 10.0 mi South 9.2 mph - N/A   Clear